Change the Weather History Date:

Friday, August 30, 2013

  Actual Average Record
Temperature  
Mean Temperature 86 °F 83 °F  
Max Temperature 96 °F 94 °F 105 °F (2012)
Min Temperature 76 °F 73 °F 66 °F (1992)
Degree Days  
Heating Degree Days 0 0  
Month to date heating degree days 0 0  
Since 1 June heating degree days 0 0  
Since 1 July heating degree days 0 0  
Cooling Degree Days 21 18  
Month to date cooling degree days 635 586  
Year to date cooling degree days 2472 2339  
Since 1 June cooling degree days 1838 1680  
Growing Degree Days 36 (Base 50)    
Moisture  
Dew Point 73 °F    
Average Humidity 68    
Maximum Humidity 94    
Minimum Humidity 42    
Precipitation  
Precipitation 0.00 in 0.13 in 3.40 in (1953)
Month to date precipitation 1.83 2.72  
Year to date precipitation 14.92 26.74  
Snow  
Snow 0.00 in - - ()
Month to date snowfall 0.0  
Since 1 June snowfall 0.0  
Since 1 July snowfall 0.0  
Snow Depth 0.00 in    
Sea Level Pressure  
Sea Level Pressure 29.97 in    
Wind  
Wind Speed 6 mph (SSW)    
Max Wind Speed 17 mph    
Max Gust Speed 23 mph    
Visibility 10 miles    
Events      
T = Trace of Precipitation, MM = Missing Value Source: NWS Daily Summary

Daily Weather History Graph

Daily Weather History Graph

Search for Another Location

Airport or City:

Trip Planner

Search our weather history database for the weather conditions in past years. The results will help you decide how hot, cold, wet, or windy it might be!

Date:

Astronomy

Aug. 30, 2013 Rise Set
Actual Time 7:04 AM CDT 7:51 PM CDT
Civil Twilight 6:40 AM CDT 8:15 PM CDT
Nautical Twilight 6:12 AM CDT 8:43 PM CDT
Astronomical Twilight 5:43 AM CDT 9:12 PM CDT
Moon 1:58 AM CDT (8/30) 3:54 PM CDT (8/30)
Length of Visible Light 13h 34m
Length of Day
12h 46m
Waning Crescent, 29% of the Moon is Illuminated
Aug 30
Waning Crescent
Sep 5
New
Sep 12
First Quarter
Sep 19
Full
Sep 26
Last Quarter

Hourly Weather History & Observations

Time (CDT) Temp. Heat Index Dew Point Humidity Pressure Visibility Wind Dir Wind Speed Gust Speed Precip Events Conditions
12:51 AM 80.1 °F 85.1 °F 75.0 °F 85% 29.98 in 10.0 mi SSW 5.8 mph - N/A   Clear
1:51 AM 79.0 °F - 75.0 °F 88% 29.98 in 10.0 mi SW 4.6 mph - N/A   Clear
2:51 AM 79.0 °F - 75.0 °F 88% 29.99 in 10.0 mi SSW 4.6 mph - N/A   Clear
3:51 AM 78.1 °F - 75.0 °F 90% 29.99 in 10.0 mi SSW 3.5 mph - N/A   Clear
4:51 AM 77.0 °F - 73.9 °F 90% 29.99 in 10.0 mi SSW 3.5 mph - N/A   Clear
5:51 AM 77.0 °F - 75.0 °F 94% 29.99 in 7.0 mi Calm Calm - N/A   Partly Cloudy
6:51 AM 75.9 °F - 73.9 °F 94% 30.01 in 9.0 mi Calm Calm - N/A   Clear
6:58 AM 77.0 °F - 73.4 °F 89% 30.01 in 9.0 mi Calm Calm - N/A   Partly Cloudy
7:51 AM 79.0 °F - 75.9 °F 90% 30.02 in 7.0 mi Calm Calm - N/A   Partly Cloudy
8:51 AM 82.0 °F 89.4 °F 75.9 °F 82% 30.03 in 10.0 mi WSW 5.8 mph - N/A   Clear
9:51 AM 84.9 °F 93.3 °F 75.0 °F 72% 30.04 in 10.0 mi SW 4.6 mph - N/A   Clear
10:51 AM 88.0 °F 97.5 °F 75.0 °F 65% 30.03 in 10.0 mi WSW 4.6 mph - N/A   Clear
11:51 AM 90.0 °F 96.4 °F 71.1 °F 54% 30.02 in 10.0 mi WSW 3.5 mph - N/A   Clear
12:51 PM 91.9 °F 98.4 °F 71.1 °F 50% 30.00 in 10.0 mi Calm Calm - N/A   Clear
1:51 PM 93.9 °F 100.3 °F 70.0 °F 46% 29.98 in 10.0 mi Variable 4.6 mph - N/A   Mostly Cloudy
2:51 PM 96.1 °F 103.5 °F 71.1 °F 44% 29.95 in 10.0 mi Calm Calm - N/A   Scattered Clouds
3:51 PM 95.0 °F 101.3 °F 70.0 °F 44% 29.92 in 10.0 mi South 5.8 mph - N/A   Partly Cloudy
4:51 PM 96.1 °F 102.9 °F 70.0 °F 43% 29.90 in 10.0 mi South 10.4 mph - N/A   Partly Cloudy
5:51 PM 95.0 °F 103.2 °F 72.0 °F 47% 29.89 in 10.0 mi South 12.7 mph - N/A   Partly Cloudy
6:51 PM 90.0 °F 96.9 °F 72.0 °F 55% 29.90 in 10.0 mi South 17.3 mph - N/A   Clear
7:51 PM 86.0 °F 92.2 °F 72.0 °F 63% 29.91 in 10.0 mi South 13.8 mph - N/A   Clear
8:51 PM 84.0 °F 90.2 °F 73.0 °F 69% 29.92 in 10.0 mi South 8.1 mph - N/A   Clear
9:51 PM 82.0 °F 87.4 °F 73.0 °F 74% 29.93 in 10.0 mi South 6.9 mph - N/A   Clear
10:51 PM 81.0 °F 86.2 °F 73.9 °F 79% 29.92 in 10.0 mi South 6.9 mph - N/A   Clear
11:51 PM 80.1 °F 84.5 °F 73.9 °F 81% 29.91 in 9.0 mi South 6.9 mph - N/A   Clear